Hourly Data Report for March 30, 2015

All times are specified in Local Standard Time (LST). Add 1 hour to adjust for Daylight Saving Time where and when it is observed.

MIRAMICHI RCS
NEW BRUNSWICK

47°00'34.000" N
65°27'54.000" W
33.00 m
8100989
71744
ACQ

Download Data

Hourly Data (March 2015)
Hourly Data Report for March 30, 2015
TIME Temp Definition
°C
Dew Point Definition
°C
Rel Hum Definition
%
Wind Dir Definition
10's deg

Wind Spd Definition
km/h
Visibility Definition
km
Stn Press Definition
kPa
Hmdx Definition


Wind Chill Definition


Weather Definition


00:00 -2.3 -11.2 51 22 16   101.00   -7 LegendNANA
01:00 -3.9 -11.5 56 23 11   100.95   -8 LegendNANA
02:00 -4.4 -12.0 56 24 10   100.95   -9 LegendNANA
03:00 -4.5 -11.9 56 23 13   100.92   -10 LegendNANA
04:00 -5.4 -12.3 58 23 12   100.90   -10 LegendNANA
05:00 -5.9 -13.2 56 23 11   100.85   -11 LegendNANA
06:00 -6.7 -13.4 59 23 10   100.87   -11 LegendNANA
07:00 -6.0 -13.5 55 22 6   100.82   -9 LegendNANA
08:00 -2.9 -10.8 54 23 16   100.79   -8 LegendNANA
09:00 -1.8 -9.9 54 22 14   100.75   -6 LegendNANA
10:00 -0.2 -7.0 60 22 20   100.72   -5 LegendNANA
11:00 1.8 -7.3 51 22 21   100.60     LegendNANA
12:00 2.8 -7.2 48 21 22   100.50     LegendNANA
13:00 3.9 -7.8 42 20 30   100.42     LegendNANA
14:00 4.2 -6.3 46 20 33   100.30     LegendNANA
15:00 4.2 -5.8 48 20 30   100.24     LegendNANA
16:00 3.6 -4.5 55 19 31   100.18     LegendNANA
17:00 3.6 -3.9 58 20 26   100.16     LegendNANA
18:00 3.1 -3.7 61 20 27   100.14     LegendNANA
19:00 1.9 -2.3 74 20 26   100.12     LegendNANA
20:00 0.6 -1.1 88 18 17   100.06     LegendNANA
21:00 0.5 -1.4 87 19 19   100.01     LegendNANA
22:00 0.6 -2.1 82 18 22   99.93     LegendNANA
23:00 0.7 -2.1 82 18 19   99.85     LegendNANA

Notes on Data Quality.

Legend

  • E = Estimated
  • M = Missing
  • NA = Not Available
Date modified: